This is the latest recevied weather packets stored in our database for station/object SQ3MKP-13. If no packets are shown the sender has not sent any weather packets the latest 10 day(s).
| Time | Temp. | Humidity | Pressure | Rain* | Wind** | Luminosity | Snow |
|---|---|---|---|---|---|---|---|
| 1777794909 | 21.67° C | 42% | 1005.9 hPa | - | - | 518 W/m² | - |
| 1777794608 | 21.11° C | 43% | 1005.9 hPa | - | - | 505 W/m² | - |
| 1777794307 | 20.56° C | 43% | 1005.9 hPa | - | - | 468 W/m² | - |
| 1777794006 | 20° C | 44% | 1005.9 hPa | - | - | 448 W/m² | - |
| 1777793705 | 20.56° C | 44% | 1006 hPa | - | - | 398 W/m² | - |
| 1777793404 | 20° C | 45% | 1006 hPa | - | - | 386 W/m² | - |
| 1777793103 | 19.44° C | 45% | 1006 hPa | - | - | 435 W/m² | - |
| 1777792802 | 19.44° C | 45% | 1006.1 hPa | - | - | 400 W/m² | - |
| 1777792501 | 18.89° C | 47% | 1006.1 hPa | - | - | 413 W/m² | - |
| 1777792201 | 19.44° C | 47% | 1006.2 hPa | - | - | 411 W/m² | - |
| 1777791900 | 18.33° C | 48% | 1006.1 hPa | - | - | 386 W/m² | - |
| 1777791598 | 17.78° C | 50% | 1006.2 hPa | - | - | 369 W/m² | - |
| 1777791297 | 17.78° C | 49% | 1006.2 hPa | - | - | 361 W/m² | - |
| 1777790997 | 17.78° C | 50% | 1006.2 hPa | - | - | 344 W/m² | - |
| 1777790696 | 17.22° C | 51% | 1006.3 hPa | - | - | 329 W/m² | - |
| 1777790395 | 17.22° C | 51% | 1006.3 hPa | - | - | 326 W/m² | - |
| 1777790094 | 16.67° C | 51% | 1006.3 hPa | - | - | 223 W/m² | - |
| 1777789793 | 16.67° C | 52% | 1006.2 hPa | - | - | 278 W/m² | - |
| 1777789492 | 16.67° C | 51% | 1006.3 hPa | - | - | 176 W/m² | - |
| 1777789192 | 16.67° C | 51% | 1006.2 hPa | - | - | 96 W/m² | - |
| 1777788890 | 16.11° C | 52% | 1006.3 hPa | - | - | 94 W/m² | - |
| 1777788590 | 16.11° C | 52% | 1006.3 hPa | - | - | 94 W/m² | - |
| 1777788289 | 16.11° C | 52% | 1006.2 hPa | - | - | 124 W/m² | - |
| 1777787988 | 15.56° C | 51% | 1006.3 hPa | - | - | 226 W/m² | - |
| 1777787687 | 15.56° C | 53% | 1006.2 hPa | - | - | 219 W/m² | - |
* Rain since midnight (hover to see other rain measurements)
** Current wind speed in m/s (hover to see current wind gust speed)